Location: Wien
(48.2082°N, 16.3738°E)
Time: 09:13:02
(UTC+02:00)

Transit 4A - Pass Details

Date: 01 March 2024
Orbit: 871 x 971 km, 66.8° (Epoch: 24 April)

Event Time Altitude Azimuth Distance (km) Brightness Sun altitude
Exits shadow 02:17:58 19° 5° (N) 2,001 10.0 -40.7°
Drops below altitude 10° 02:20:07 10° 22° (NNE) 2,577 10.8 -40.5°
Sets 02:22:59 0° 34° (NE) 3,505 11.8 -40.1°
